Back to catalog

COSMOS 1560

AliveMilitaryLEO
NORAD 14999·PAYLOAD·🇷🇺 Russia

Launched May 28, 1984 from Plesetsk Cosmodrome

Loading…

Next Passes (next 24 hours)

TLE

FreshSource: Space-Track

Epoch: Sep 14, 2026, 04:30 UTC

1 14999U 84052B   26257.18805714  .00000004  00000-0  14004-3 0  9993
2 14999  74.0162 344.4865 0014192 248.8027 133.8931 12.46119033923929

Track COSMOS 1560 in real time with AllMySat

Download on the App Store